Location: Clearwater
(33.8964°N, 118.1601°W)
Time: 06:26:59
(UTC+00:00)

Daily predictions for brighter satellites

Satellite Brightness Start Highest point End
(mag) Time Altitude Azimuth Time Altitude Azimuth Time Altitude Azimuth
BREEZE-M DEB (TANK) 4.3 12:05:26 18° ENE 12:05:26 18° ENE 12:06:16 10° ENE
ADEOS 4.2 12:02:02 10° NNE 12:07:09 54° E 12:12:14 10° S
Cosmos 1484 Rocket 4.0 12:03:54 10° NNE 12:07:31 41° E 12:11:04 10° S
Cosmos 292 Rocket 4.4 12:15:44 42° SSW 12:15:44 42° SSW 12:19:04 10° S
Cosmos 1833 Rocket 2.7 12:17:48 55° WNW 12:17:58 55° WNW 12:23:32 10° NNE
Lacrosse 5 rocket 3.4 12:29:12 13° N 12:29:12 13° N 12:29:56 10° N
Cosmos 44 Rocket 3.3 12:25:06 30° NNW 12:27:46 89° WSW 12:32:57 10° SSE
ATLAS 3B R/B 2.5 12:26:50 30° SW 12:30:06 62° WNW 12:36:40 10° NNE
Meteor 1-31 Rocket 3.2 12:28:10 10° NNE 12:32:04 64° E 12:35:57 10° S
Meteor 1-24 Rocket 3.8 12:27:17 10° S 12:32:48 77° E 12:38:33 10° N
ATLAS CENTAUR Rocket 3.8 12:36:29 16° SW 12:36:29 16° SW 12:38:58 10° S
METEOR-M 4.2 12:31:30 10° NNE 12:36:52 80° ESE 12:42:11 10° S
USA 290 2.7 12:37:59 47° N 12:37:59 47° N 12:40:28 10° NNE
ISS -1.2 12:39:29 12° N 12:39:29 12° N 12:40:00 10° N
Cosmos 2082 Rocket 2.1 12:33:54 10° SSW 12:39:27 67° WNW 12:45:03 10° NNE
Cosmos 2369 4.1 12:34:12 10° NNW 12:39:48 64° ENE 12:45:23 10° SSE
Cosmos 2228 3.3 12:35:33 10° N 12:39:55 72° E 12:44:17 10° SSE
ATLAS CENTAUR R/B 4.3 12:37:23 10° SSE 12:40:03 17° ESE 12:42:38 10° ENE
ADEOS Rocket 3.0 12:36:24 10° S 12:41:37 43° W 12:46:50 10° NNW
Cosmos 1656 3.9 12:41:10 19° NW 12:44:59 48° WSW 12:50:23 10° S
Cosmos 1606 Rocket 3.6 12:43:14 10° N 12:47:44 83° E 12:52:12 10° S
ERS-2 2.1 12:46:40 10° S 12:50:14 57° WSW 12:53:33 12° NNW
COSMO-SKYMED 1 3.9 12:46:27 10° SE 12:50:32 42° ENE 12:54:37 10° N
SAR-Lupe-4 4.0 12:47:28 10° SSE 12:50:58 61° ENE 12:54:30 10° N
ALOS 2.3 12:46:48 10° N 12:51:22 54° WNW 12:55:54 10° SSW
H-2A R/B 3.5 12:49:02 10° SSW 12:51:14 21° SW 12:51:14 21° SW
NOSS 8 (A) 4.3 12:52:51 21° SW 12:55:06 60° WNW 12:58:09 10° NNE
CZ-4B R/B 3.9 12:54:26 10° N 12:58:29 55° WNW 13:02:19 10° SSW
Cosmos 1092 Rocket 3.9 12:55:06 10° SSW 13:01:09 62° W 13:07:18 10° N
Meteor 2-5 Rocket 4.1 12:56:25 10° SSW 13:01:45 42° WNW 13:07:13 10° N
Cosmos 614 Rocket 4.0 12:56:50 10° SSW 13:02:00 83° ESE 13:07:08 10° NNE
Cosmos 2251 Rocket 3.8 12:58:03 10° SW 13:03:11 45° WNW 13:08:18 10° N
Cosmos 1400 Rocket 2.9 12:59:36 10° N 13:03:32 74° E 13:07:23 10° SSE
Cosmos 220 Rocket 4.0 13:04:08 10° NNW 13:08:32 68° WSW 13:12:54 10° S
Cosmos 1697 Rocket 2.7 13:03:02 10° NNW 13:08:35 59° WSW 13:14:07 10° S
SAR-Lupe-1 3.9 13:05:17 10° S 13:08:50 79° WSW 13:12:25 10° NNW
Okean 1-7 Rocket 3.5 13:08:03 10° SSW 13:12:36 73° W 13:17:08 10° N
CZ-2C R/B 4.3 13:13:35 10° NW 13:14:34 12° NW 13:14:34 12° NW
deb Chang Zheng 4 4.3 13:12:03 10° N 13:15:45 29° WNW 13:19:27 10° SW
Cosmos 2084 4.1 13:12:23 13° WSW 13:15:48 34° NW 13:19:47 10° NNE
FENGYUN 3A 4.3 13:13:52 10° N 13:18:38 32° WNW 13:23:23 10° SW
Cosmos 2058 Rocket 3.1 13:16:13 10° N 13:20:43 87° W 13:25:09 10° S
DELTA 2 R/B (1) 4.2 13:17:21 15° W 13:21:43 43° SSW 13:26:59 10° SE
Cosmos 1300 3.2 13:20:08 10° NNW 13:23:41 38° W 13:27:13 10° SSW
Cosmos 1892 Rocket 4.1 13:20:03 10° SW 13:23:59 34° W 13:27:57 10° NNW
Cosmos 1190 Rocket 4.4 13:20:00 10° S 13:25:12 68° ESE 13:30:24 10° NNE
H-2A R/B 3.6 13:21:29 10° NNE 13:25:41 49° E 13:29:43 10° S
Cosmos 1626 4.1 13:27:48 11° WNW 13:27:48 11° WNW 13:28:31 10° NW
SJ-12 4.4 13:25:23 10° N 13:29:10 36° WNW 13:32:54 10° SW
Cosmos 1980 Rocket 2.1 13:25:31 10° NNW 13:31:06 76° WSW 13:36:41 10° SSE
CZ-4B R/B 3.0 13:31:01 10° SW 13:33:27 18° W 13:35:52 10° NW
Cosmos 2098 Rocket 3.9 13:27:49 10° S 13:34:24 86° E 13:39:43 10° N
Cosmos 1315 Rocket 3.8 13:30:27 10° N 13:34:29 54° E 13:38:31 10° SSE
Abrixas rocket 4.2 13:33:49 10° NNW 13:35:49 17° NNE 13:37:49 10° ENE
Cosmos 2292 Rocket 3.5 13:33:06 10° S 13:35:59 57° E 13:39:16 10° NNE
SKYMED 2 3.8 13:34:21 10° S 13:38:32 48° W 13:42:44 10° NNW
Spot 2 4.3 13:39:09 10° N 13:43:46 70° WNW 13:48:38 10° SSW
SJ-7 4.3 13:41:29 10° N 13:45:29 76° WNW 13:49:26 10° SSW
